| time (UTC) | temp C | wind direction | speed KPH | gust KPH | rain 1hr cm | rain 24hr cm | rain mn cm | humidity % | barometer mb |
| 20260507023533 | 7 | 344 | 3.2 | 6.4 | 0.00 | 1.09 | 0.00 | 89 | 1011.5 |
| 20260507022528 | 7 | 9 | 1.6 | 4.8 | 0.00 | 1.12 | 0.00 | 89 | 1011.6 |
| 20260507021523 | 7 | 340 | 0.0 | 3.2 | 0.00 | 1.14 | 0.00 | 88 | 1011.5 |
| 20260507020518 | 7 | 345 | 1.6 | 4.8 | 0.00 | 1.14 | 0.00 | 88 | 1011.5 |
| 20260507015533 | 7 | 4 | 1.6 | 4.8 | 0.00 | 1.17 | 0.00 | 88 | 1011.4 |
| 20260507014530 | 7 | 321 | 1.6 | 6.4 | 0.00 | 1.19 | 0.00 | 88 | 1011.4 |
| 20260507013527 | 7 | 349 | 3.2 | 6.4 | 0.00 | 1.19 | 0.00 | 88 | 1011.3 |
| 20260507012543 | 7 | 342 | 0.0 | 6.4 | 0.00 | 1.22 | 0.00 | 87 | 1011.3 |
| 20260507011519 | 7 | 349 | 1.6 | 4.8 | 0.00 | 1.24 | 0.00 | 87 | 1011.1 |
| 20260507010534 | 7 | 3 | 1.6 | 4.8 | 0.00 | 1.24 | 0.00 | 87 | 1011.1 |
| 20260507005550 | 7 | 341 | 1.6 | 4.8 | 0.00 | 1.27 | 0.00 | 87 | 1011.1 |
| 20260507004526 | 7 | 321 | 1.6 | 4.8 | 0.00 | 1.30 | 0.00 | 87 | 1011.0 |
| 20260507003520 | 7 | 331 | 1.6 | 4.8 | 0.00 | 1.30 | 0.00 | 87 | 1011.1 |
| 20260507002537 | 7 | 333 | 1.6 | 3.2 | 0.00 | 1.32 | 0.00 | 87 | 1011.0 |
| 20260507001532 | 7 | 318 | 1.6 | 6.4 | 0.00 | 1.35 | 0.00 | 87 | 1011.0 |
| 20260507000528 | 8 | 329 | 1.6 | 4.8 | 0.00 | 1.35 | 0.00 | 87 | 1011.0 |
| 20260506235524 | 8 | 338 | 1.6 | 4.8 | 0.00 | 1.37 | 0.00 | 87 | 1010.9 |
| 20260506234521 | 8 | 329 | 3.2 | 6.4 | 0.00 | 1.37 | 0.00 | 86 | 1010.9 |
| 20260506233517 | 8 | 328 | 1.6 | 9.7 | 0.00 | 1.40 | 0.00 | 86 | 1010.8 |
| 20260506232533 | 8 | 315 | 1.6 | 6.4 | 0.00 | 1.40 | 0.00 | 86 | 1010.8 |
| 20260506231528 | 8 | 323 | 1.6 | 6.4 | 0.00 | 1.42 | 0.00 | 85 | 1010.8 |
| 20260506230545 | 8 | 19 | 0.0 | 1.6 | 0.00 | 1.42 | 0.00 | 85 | 1010.8 |
| 20260506225540 | 8 | 323 | 1.6 | 3.2 | 0.00 | 1.45 | 0.00 | 84 | 1010.7 |
| 20260506224515 | 8 | 320 | 1.6 | 3.2 | 0.00 | 1.45 | 0.00 | 84 | 1010.7 |
| 20260506223533 | 8 | 317 | 1.6 | 3.2 | 0.00 | 1.45 | 0.00 | 83 | 1010.7 |
| 20260506222528 | 8 | 320 | 1.6 | 6.4 | 0.00 | 1.45 | 0.00 | 83 | 1010.7 |
| 20260506221524 | 8 | 323 | 1.6 | 3.2 | 0.00 | 1.45 | 0.00 | 83 | 1010.5 |
| 20260506220519 | 8 | 331 | 0.0 | 3.2 | 0.00 | 1.45 | 0.00 | 83 | 1010.5 |
| 20260506215516 | 8 | 322 | 1.6 | 3.2 | 0.00 | 1.45 | 1.45 | 82 | 1010.5 |
| 20260506214533 | 8 | 355 | 1.6 | 4.8 | 0.00 | 1.45 | 1.45 | 82 | 1010.5 |
| 20260506213530 | 8 | 35 | 0.0 | 3.2 | 0.00 | 1.45 | 1.45 | 83 | 1010.4 |
| 20260506212544 | 8 | 8 | 1.6 | 4.8 | 0.00 | 1.45 | 1.45 | 83 | 1010.4 |
| 20260506211520 | 8 | 29 | 0.0 | 3.2 | 0.00 | 1.45 | 1.45 | 82 | 1010.4 |
| 20260506210516 | 8 | 33 | 0.0 | 3.2 | 0.00 | 1.47 | 1.45 | 82 | 1010.3 |
| 20260506205530 | 8 | 31 | 1.6 | 4.8 | 0.00 | 1.47 | 1.45 | 82 | 1010.3 |
| 20260506204526 | 8 | 20 | 1.6 | 3.2 | 0.00 | 1.47 | 1.45 | 83 | 1010.2 |
| 20260506203521 | 8 | 37 | 1.6 | 4.8 | 0.00 | 1.47 | 1.45 | 83 | 1010.2 |
| 20260506202517 | 8 | 34 | 0.0 | 4.8 | 0.00 | 1.50 | 1.45 | 84 | 1010.1 |
| 20260506201534 | 8 | 0.0 | 0.0 | 0.00 | 1.50 | 1.45 | 84 | 1010.0 | |
| 20260506200531 | 8 | 352 | 1.6 | 3.2 | 0.00 | 1.50 | 1.45 | 84 | 1010.0 |
| 20260506194521 | 9 | 21 | 0.0 | 3.2 | 0.00 | 1.50 | 1.45 | 82 | 1010.0 |
| 20260506193517 | 9 | 16 | 1.6 | 4.8 | 0.00 | 1.50 | 1.45 | 81 | 1009.9 |
| 20260506192533 | 9 | 16 | 1.6 | 4.8 | 0.00 | 1.50 | 1.45 | 82 | 1009.7 |
| 20260506191529 | 9 | 17 | 1.6 | 6.4 | 0.00 | 1.50 | 1.45 | 83 | 1009.7 |
| 20260506190524 | 9 | 36 | 1.6 | 4.8 | 0.00 | 1.50 | 1.45 | 83 | 1009.5 |
| 20260506185541 | 9 | 42 | 1.6 | 3.2 | 0.00 | 1.50 | 1.45 | 83 | 1009.4 |
| 20260506184517 | 9 | 45 | 0.0 | 3.2 | 0.00 | 1.50 | 1.45 | 83 | 1009.4 |
| 20260506183553 | 9 | 47 | 1.6 | 3.2 | 0.00 | 1.50 | 1.45 | 83 | 1009.4 |
| 20260506182529 | 9 | 50 | 3.2 | 6.4 | 0.00 | 1.50 | 1.45 | 82 | 1009.3 |
| 20260506181525 | 9 | 67 | 1.6 | 9.7 | 0.00 | 1.50 | 1.45 | 82 | 1009.0 |
| 20260506180520 | 9 | 26 | 1.6 | 6.4 | 0.00 | 1.50 | 1.45 | 83 | 1008.9 |
| 20260506175537 | 9 | 58 | 1.6 | 4.8 | 0.00 | 1.50 | 1.45 | 83 | 1008.8 |
| 20260506174552 | 9 | 39 | 3.2 | 6.4 | 0.00 | 1.50 | 1.45 | 83 | 1008.7 |
| 20260506173530 | 9 | 46 | 3.2 | 9.7 | 0.00 | 1.50 | 1.45 | 82 | 1008.6 |
| 20260506172525 | 9 | 81 | 4.8 | 11.3 | 0.00 | 1.50 | 1.45 | 82 | 1008.6 |
| 20260506171542 | 9 | 65 | 3.2 | 11.3 | 0.00 | 1.50 | 1.45 | 83 | 1008.6 |
| 20260506170539 | 9 | 52 | 4.8 | 9.7 | 0.00 | 1.50 | 1.45 | 83 | 1008.5 |
| 20260506165534 | 9 | 45 | 3.2 | 12.9 | 0.00 | 1.50 | 1.45 | 83 | 1008.5 |
| 20260506164530 | 9 | 53 | 6.4 | 14.5 | 0.00 | 1.50 | 1.45 | 84 | 1008.5 |
| 20260506163527 | 9 | 49 | 1.6 | 6.4 | 0.00 | 1.50 | 1.45 | 85 | 1008.4 |
| 20260506162522 | 9 | 46 | 3.2 | 9.7 | 0.00 | 1.50 | 1.45 | 86 | 1008.3 |
| 20260506161518 | 9 | 38 | 4.8 | 11.3 | 0.00 | 1.50 | 1.45 | 87 | 1008.4 |
| 20260506160534 | 9 | 36 | 4.8 | 11.3 | 0.00 | 1.50 | 1.45 | 87 | 1008.4 |
| 20260506155528 | 9 | 34 | 4.8 | 11.3 | 0.00 | 1.52 | 1.45 | 88 | 1008.4 |
| 20260506154525 | 9 | 37 | 3.2 | 11.3 | 0.00 | 1.52 | 1.45 | 87 | 1008.3 |
| 20260506153541 | 9 | 45 | 4.8 | 16.1 | 0.00 | 1.52 | 1.45 | 88 | 1008.3 |
| 20260506152537 | 9 | 43 | 4.8 | 12.9 | 0.00 | 1.52 | 1.45 | 89 | 1008.1 |
| 20260506151534 | 9 | 10 | 4.8 | 11.3 | 0.00 | 1.52 | 1.45 | 89 | 1008.2 |
| 20260506150529 | 9 | 42 | 1.6 | 9.7 | 0.00 | 1.52 | 1.45 | 89 | 1008.1 |
| 20260506145525 | 9 | 51 | 4.8 | 11.3 | 0.00 | 1.52 | 1.45 | 90 | 1008.1 |
| 20260506144520 | 8 | 36 | 3.2 | 12.9 | 0.00 | 1.52 | 1.45 | 91 | 1007.8 |
| 20260506143537 | 8 | 51 | 3.2 | 9.7 | 0.00 | 1.52 | 1.45 | 91 | 1007.9 |
| 20260506142532 | 8 | 13 | 4.8 | 14.5 | 0.03 | 1.52 | 1.45 | 91 | 1007.8 |
| 20260506141529 | 8 | 40 | 4.8 | 9.7 | 0.03 | 1.52 | 1.45 | 91 | 1007.8 |
| 20260506140523 | 8 | 41 | 3.2 | 9.7 | 0.03 | 1.52 | 1.45 | 91 | 1007.8 |
| 20260506135519 | 8 | 22 | 6.4 | 12.9 | 0.03 | 1.52 | 1.45 | 92 | 1007.8 |
| 20260506134516 | 8 | 30 | 4.8 | 14.5 | 0.03 | 1.52 | 1.45 | 92 | 1007.7 |
| 20260506133533 | 8 | 44 | 4.8 | 12.9 | 0.03 | 1.52 | 1.45 | 91 | 1007.6 |
| 20260506132528 | 8 | 45 | 1.6 | 9.7 | 0.00 | 1.50 | 1.42 | 91 | 1007.7 |
| 20260506131523 | 8 | 58 | 4.8 | 9.7 | 0.00 | 1.50 | 1.42 | 91 | 1007.7 |
| 20260506130519 | 8 | 31 | 4.8 | 12.9 | 0.00 | 1.50 | 1.42 | 92 | 1007.7 |
| 20260506125534 | 8 | 30 | 4.8 | 12.9 | 0.00 | 1.50 | 1.42 | 92 | 1007.6 |
| 20260506124532 | 8 | 353 | 3.2 | 12.9 | 0.00 | 1.50 | 1.42 | 92 | 1007.5 |
| 20260506123547 | 8 | 52 | 4.8 | 11.3 | 0.00 | 1.50 | 1.42 | 92 | 1007.4 |
| 20260506122524 | 8 | 36 | 4.8 | 9.7 | 0.03 | 1.50 | 1.42 | 92 | 1007.4 |
| 20260506121520 | 8 | 55 | 4.8 | 12.9 | 0.03 | 1.50 | 1.42 | 92 | 1007.5 |
| 20260506120516 | 8 | 17 | 3.2 | 6.4 | 0.03 | 1.50 | 1.42 | 92 | 1007.3 |
| 20260506115532 | 8 | 21 | 4.8 | 12.9 | 0.03 | 1.50 | 1.42 | 92 | 1007.2 |
| 20260506114528 | 8 | 58 | 4.8 | 9.7 | 0.03 | 1.50 | 1.42 | 93 | 1007.3 |
| 20260506113524 | 8 | 43 | 3.2 | 9.7 | 0.05 | 1.50 | 1.42 | 93 | 1007.3 |
| 20260506112540 | 8 | 50 | 3.2 | 11.3 | 0.03 | 1.47 | 1.40 | 92 | 1007.3 |
| 20260506111515 | 8 | 46 | 6.4 | 14.5 | 0.03 | 1.47 | 1.40 | 92 | 1007.2 |
| 20260506110552 | 8 | 43 | 4.8 | 14.5 | 0.05 | 1.47 | 1.40 | 93 | 1007.1 |
| 20260506105528 | 8 | 38 | 4.8 | 14.5 | 0.05 | 1.47 | 1.40 | 93 | 1007.1 |
| 20260506104525 | 7 | 31 | 6.4 | 17.7 | 0.05 | 1.50 | 1.40 | 93 | 1007.1 |
| 20260506103519 | 8 | 41 | 4.8 | 12.9 | 0.05 | 1.47 | 1.37 | 94 | 1007.0 |
| 20260506102555 | 8 | 41 | 4.8 | 9.7 | 0.08 | 1.47 | 1.37 | 94 | 1006.9 |
| 20260506101532 | 7 | 43 | 4.8 | 11.3 | 0.10 | 1.47 | 1.37 | 94 | 1007.0 |
| 20260506100529 | 7 | 32 | 3.2 | 6.4 | 0.10 | 1.45 | 1.35 | 94 | 1006.8 |
| 20260506095524 | 7 | 45 | 6.4 | 16.1 | 0.13 | 1.45 | 1.35 | 94 | 1006.8 |
| 20260506094521 | 7 | 42 | 4.8 | 16.1 | 0.15 | 1.45 | 1.35 | 94 | 1006.8 |
| 20260506093517 | 7 | 37 | 3.2 | 9.7 | 0.15 | 1.42 | 1.32 | 94 | 1006.6 |
| 20260506092533 | 7 | 55 | 4.8 | 9.7 | 0.15 | 1.40 | 1.30 | 94 | 1006.7 |
| 20260506091550 | 7 | 34 | 4.8 | 11.3 | 0.15 | 1.37 | 1.27 | 95 | 1006.6 |
| 20260506090525 | 7 | 34 | 4.8 | 12.9 | 0.15 | 1.35 | 1.24 | 95 | 1006.6 |
| 20260506085522 | 7 | 43 | 4.8 | 12.9 | 0.15 | 1.32 | 1.22 | 95 | 1006.5 |
| 20260506084518 | 7 | 26 | 6.4 | 16.1 | 0.15 | 1.30 | 1.19 | 95 | 1006.5 |
| 20260506083534 | 7 | 36 | 3.2 | 11.3 | 0.15 | 1.27 | 1.17 | 95 | 1006.5 |
| 20260506082529 | 7 | 43 | 6.4 | 14.5 | 0.15 | 1.24 | 1.14 | 95 | 1006.3 |
| 20260506081546 | 7 | 29 | 6.4 | 11.3 | 0.15 | 1.22 | 1.12 | 95 | 1006.3 |
| 20260506080522 | 7 | 24 | 1.6 | 6.4 | 0.15 | 1.19 | 1.09 | 95 | 1006.3 |
| 20260506072527 | 7 | 30 | 4.8 | 11.3 | 0.15 | 1.09 | 0.99 | 95 | 1006.1 |
| 20260506071523 | 7 | 28 | 4.8 | 16.1 | 0.15 | 1.07 | 0.97 | 95 | 1006.0 |
| 20260506070519 | 7 | 39 | 4.8 | 12.9 | 0.15 | 1.04 | 0.94 | 95 | 1005.9 |
| 20260506061518 | 8 | 48 | 4.8 | 14.5 | 0.13 | 0.99 | 0.81 | 96 | 1005.7 |
| 20260506060533 | 8 | 19 | 4.8 | 11.3 | 0.13 | 0.97 | 0.79 | 96 | 1005.5 |
| 20260506050550 | 8 | 23 | 3.2 | 6.4 | 0.13 | 0.86 | 0.66 | 96 | 1005.5 |
| 20260506044523 | 8 | 355 | 3.2 | 6.4 | 0.13 | 0.81 | 0.61 | 96 | 1005.4 |
| 20260506043519 | 8 | 354 | 3.2 | 9.7 | 0.13 | 0.81 | 0.58 | 96 | 1005.5 |
| 20260506042535 | 8 | 16 | 4.8 | 12.9 | 0.10 | 0.79 | 0.56 | 96 | 1005.4 |
| 20260506041531 | 9 | 342 | 3.2 | 11.3 | 0.13 | 0.81 | 0.56 | 96 | 1005.5 |
| 20260506040526 | 9 | 3 | 3.2 | 6.4 | 0.13 | 0.79 | 0.53 | 96 | 1005.5 |
| 20260506035523 | 9 | 19 | 3.2 | 4.8 | 0.13 | 0.76 | 0.51 | 96 | 1005.6 |
| 20260506034519 | 9 | 27 | 3.2 | 9.7 | 0.10 | 0.74 | 0.48 | 96 | 1005.6 |
| 20260506033556 | 9 | 49 | 1.6 | 4.8 | 0.10 | 0.71 | 0.46 | 96 | 1005.6 |
| 20260506032530 | 9 | 39 | 3.2 | 6.4 | 0.13 | 0.71 | 0.46 | 96 | 1005.8 |
| 20260506031545 | 9 | 29 | 3.2 | 9.7 | 0.13 | 0.69 | 0.43 | 96 | 1005.7 |
| 20260506030522 | 9 | 35 | 4.8 | 14.5 | 0.10 | 0.66 | 0.41 | 96 | 1005.8 |
| 20260506025519 | 9 | 23 | 3.2 | 6.4 | 0.10 | 0.64 | 0.38 | 96 | 1005.9 |
| 20260506024533 | 9 | 57 | 3.2 | 6.4 | 0.13 | 0.64 | 0.38 | 96 | 1006.0 |